Weather History for Pellston, MI

Change the Weather History Date:

Saturday, September 21, 2013

  Actual Average Record
Temperature  
Mean Temperature 52 °F -  
Max Temperature 57 °F 62 °F 84 °F (2007)
Min Temperature 46 °F 43 °F 26 °F (1956)
Degree Days  
Heating Degree Days 14    
Growing Degree Days 2 (Base 50)    
Moisture  
Dew Point 46 °F    
Average Humidity 78    
Maximum Humidity 93    
Minimum Humidity 57    
Precipitation  
Precipitation 0.03 in - - ()
Sea Level Pressure  
Sea Level Pressure 29.79 in    
Wind  
Wind Speed 10 mph (NW)    
Max Wind Speed 22 mph    
Max Gust Speed 29 mph    
Visibility 10 miles    
Events Rain    
Averages and records for this station are not official NWS values.
T = Trace of Precipitation, MM = Missing Value Source: NWS Daily Summary

Daily Weather History Graph

Daily Weather History Graph

Search for Another Location

Airport:

Trip Planner

Search our weather history database for the weather conditions in past years. The results will help you decide how hot, cold, wet, or windy it might be!

Date:

Astronomy

Sep. 21, 2013 Rise Set
Actual Time 7:25 AM EDT 7:38 PM EDT
Civil Twilight 6:55 AM EDT 8:07 PM EDT
Nautical Twilight 6:20 AM EDT 8:42 PM EDT
Astronomical Twilight 5:44 AM EDT 9:18 PM EDT
Moon 8:38 PM EDT (9/21) 9:51 AM EDT (9/21)
Length of Visible Light 13h 12m
Length of Day
12h 12m
Waning Gibbous, 94% of the Moon is Illuminated
Sep 21
Waning Gibbous
Sep 26
Last Quarter
Oct 4
New
Oct 11
First Quarter
Oct 18
Full

Hourly Weather History & Observations

Time (EDT) Temp. Dew Point Humidity Pressure Visibility Wind Dir Wind Speed Gust Speed Precip Events Conditions
12:54 AM 57.0 °F 53.1 °F 87% 29.73 in 9.0 mi NNW 8.1 mph - 0.01 in Rain Light Rain
1:54 AM 55.9 °F 52.0 °F 87% 29.73 in 10.0 mi NW 6.9 mph - 0.00 in   Overcast
2:42 AM 55.4 °F 51.8 °F 88% 29.73 in 10.0 mi NNW 9.2 mph - 0.00 in Rain Light Rain
2:54 AM 55.0 °F 52.0 °F 89% 29.73 in 10.0 mi NW 6.9 mph - 0.01 in Rain Light Rain
3:54 AM 55.0 °F 50.0 °F 83% 29.73 in 10.0 mi NNW 8.1 mph - 0.00 in   Overcast
4:54 AM 52.0 °F 48.9 °F 89% 29.73 in 10.0 mi NW 5.8 mph - N/A   Mostly Cloudy
5:54 AM 53.1 °F 50.0 °F 89% 29.73 in 10.0 mi NNW 5.8 mph - N/A   Overcast
6:54 AM 50.0 °F 48.0 °F 93% 29.74 in 10.0 mi WNW 3.5 mph - N/A   Partly Cloudy
7:54 AM 51.1 °F 48.0 °F 89% 29.75 in 10.0 mi NNW 5.8 mph - N/A   Mostly Cloudy
8:54 AM 53.1 °F 48.0 °F 83% 29.77 in 10.0 mi NNW 8.1 mph - N/A   Overcast
9:54 AM 54.0 °F 46.9 °F 77% 29.77 in 10.0 mi NNW 10.4 mph - N/A   Overcast
10:10 AM 53.6 °F 46.4 °F 77% 29.77 in 10.0 mi NNW 11.5 mph - N/A   Overcast
10:36 AM 53.6 °F 46.4 °F 77% 29.77 in 10.0 mi NNW 10.4 mph - 0.00 in   Overcast
10:54 AM 55.0 °F 46.0 °F 72% 29.78 in 10.0 mi NW 13.8 mph - 0.00 in   Overcast
11:22 AM 55.4 °F 44.6 °F 67% 29.77 in 10.0 mi NNW 21.9 mph 26.5 mph N/A   Overcast
11:52 AM 53.6 °F 46.4 °F 77% 29.77 in 8.0 mi NW 9.2 mph - 0.00 in Rain Light Rain
11:54 AM 54.0 °F 46.9 °F 77% 29.78 in 10.0 mi NW 11.5 mph - 0.00 in   Overcast
12:54 PM 55.9 °F 44.1 °F 64% 29.78 in 10.0 mi NW 19.6 mph 25.3 mph N/A   Mostly Cloudy
1:54 PM 57.0 °F 42.1 °F 57% 29.79 in 10.0 mi WNW 12.7 mph 24.2 mph 0.00 in   Mostly Cloudy
2:54 PM 55.0 °F 41.0 °F 59% 29.80 in 10.0 mi NW 16.1 mph 26.5 mph N/A   Overcast
3:54 PM 53.1 °F 42.1 °F 66% 29.82 in 10.0 mi NW 19.6 mph 25.3 mph 0.00 in   Overcast
4:54 PM 54.0 °F 42.1 °F 64% 29.82 in 10.0 mi WNW 17.3 mph 28.8 mph 0.00 in   Overcast
5:54 PM 50.0 °F 45.0 °F 83% 29.83 in 10.0 mi NW 15.0 mph - 0.01 in   Mostly Cloudy
6:54 PM 50.0 °F 43.0 °F 77% 29.85 in 10.0 mi NW 11.5 mph - 0.00 in   Overcast
7:54 PM 48.9 °F 42.1 °F 77% 29.86 in 10.0 mi NNW 12.7 mph - 0.00 in Rain Light Rain
8:54 PM 48.0 °F 41.0 °F 77% 29.89 in 10.0 mi NNW 13.8 mph - 0.00 in   Overcast
9:54 PM 48.0 °F 41.0 °F 77% 29.90 in 10.0 mi NNW 12.7 mph - 0.00 in   Overcast
10:54 PM 46.9 °F 39.9 °F 77% 29.91 in 10.0 mi NNW 10.4 mph - 0.00 in   Overcast
11:54 PM 46.9 °F 39.0 °F 74% 29.92 in 10.0 mi NNW 11.5 mph - N/A   Mostly Cloudy